Regional Weather Roundup
Issued by NWS Bismarck, ND

Home | Current Version | Previous Version | Text Only | Print | Product List | Glossary On
Versions: 1 2 3 4 5 6 7 8 9 10 11 12 13 14 15 16 17 18 19 20 21 22 23 24 25 26 27 28 29 30 31 32 33 34 35 36 37 38 39 40 41 42 43 44 45 46 47 48 49 50
000
ASUS43 KBIS 290602
RWRBIS

NWR BROADCAST TEXT
NATIONAL WEATHER SERVICE BISMARCK ND
100 AM CDT SUN MAY 29 2016

NOTE: "FAIR" INDICATES FEW OR NO CLOUDS BELOW 12,000 FEET WITH NO
SIGNIFICANT WEATHER AND/OR OBSTRUCTIONS TO VISIBILITY.


CITY           SKY/WX    TMP DP  RH WIND       PRES   REMARKS
WILLISTON      FOG       48  47  96 CALM      29.96S VSB 3/4
MINOT          MOCLDY    57  55  93 CALM      29.93S
MINOT AFB      PTCLDY    55  54  96 S1        29.92S
BISMARCK       CLEAR     54  53  97 W5        29.95S
DICKINSON      CLEAR     44  42  93 SW3       29.97S
GARRISON         N/A     53  51  93 NW8       29.93F
HETTINGER ARPT FOG       44  43  96 CALM      30.02S VSB 1/4
JAMESTOWN      PTCLDY    58  56  93 E3        29.89S
CARRINGTON     CLOUDY    59  57  94 CALM      29.93S
OAKES            N/A    N/A N/A N/A MISG        N/A
STANLEY        FAIR      48  48 100 CALM      29.97S
$$

CITY           SKY/WX    TMP DP  RH WIND       PRES   REMARKS
GRAND FORKS    CLOUDY    60  59  96 NW5       29.86R
GRAND FORKS AF CLOUDY    60  60 100 N5        29.87R
DEVILS LAKE    CLOUDY    59  58  96 N8        29.92R
FARGO          CLOUDY    62  59  90 NW7       29.85F
GWINNER        FAIR      57  57 100 SW7       29.89S
$$

CITY           SKY/WX    TMP DP  RH WIND       PRES   REMARKS
ABERDEEN       CLOUDY    59  56  89 SW6       29.91R
MOBRIDGE       CLEAR     56  51  84 NW5       29.94R
BUFFALO          N/A     54  42  64 SW3       29.97R
RAPID CITY     CLEAR     52  46  80 NW9       30.04R
GLASGOW        CLEAR     51  39  63 SW6       29.97S
SIDNEY         CLEAR     52  44  74 CALM      29.98R
WOLF POINT     CLEAR     45  42  89 SW3       29.98S
GLENDIVE       MOCLDY    46  39  76 W6        30.02S
MILES CITY     CLOUDY    57  45  64 NW5       30.01S
BAKER          CLEAR     44  39  82 SE3       30.03R
$$

CITY           SKY/WX    TMP DP  RH WIND       PRES   REMARKS
BILLINGS       PTCLDY    55  41  59 S6        30.05S
GREAT FALLS    CLEAR     47  31  53 S3        30.03S
REGINA         LGT RAIN  50  48  93 SW7       29.91S
$$





USA.gov is the U.S. government's official web portal to all federal, state and local government web resources and services.